Date String (YYYY-MM-DD hh:mm:ss) UTC,Instrument flags,absolute air pressure of the measurement (hPa),sample flow rate (lpm),inlet stack bypass flow (lpm),air temperature of the measurement (°C),ambient temperature measured by the external sensor (°C),aerosol sample conditioner tube jacket temperature (°C),OPC LED temperature (°C),internal box temperature (°C),relative humidity of the measurement (%),span deviation,mass concentration of particles derived from Lorenz-Mie calculation of OPC scattering (μg/m³),mass concentration of particles derived from Lorenz-Mie calculation of OPC scattering (μg/m³),mass concentration of particles derived from Lorenz-Mie calculation of OPC scattering (μg/m³)
DateTimeUTC,F1_M11,P_M11,Q1_M11,Q2_M11,T1_M11,T2_M11,T3_M11,T4_M11,T5_M11,U1_M11,ZSPAN_M11,X2_M11,X0_M11,X1_M11
2024-01-03 03:00:00,SystemResetWarning,0830.6,5.00,000.00,023.9,022.6,000.0,032.3,025.2,11.6,0004.4,0008.39,0017.95,0007.77
2024-01-03 03:01:00,SystemResetWarning,0830.6,5.00,000.00,023.9,022.6,000.0,032.3,025.2,11.6,0004.4,0008.39,0017.86,0007.77
2024-01-03 03:02:00,SystemResetWarning,0830.6,5.00,000.00,023.9,022.6,000.0,032.3,025.2,11.6,0004.2,0008.44,0018.06,0007.78
2024-01-03 03:03:00,SystemResetWarning,0830.6,5.00,000.00,023.9,022.5,000.0,032.3,025.1,11.7,0004.3,0008.47,0018.52,0007.81
2024-01-03 03:04:00,SystemResetWarning,0830.5,5.00,000.00,023.8,022.5,000.0,032.3,025.1,11.6,0004.4,0008.48,0019.46,0007.83
2024-01-03 03:05:00,SystemResetWarning,0830.7,5.00,000.00,023.8,022.5,000.0,032.3,025.1,11.5,0004.6,0008.48,0018.87,0007.84
2024-01-03 03:06:00,SystemResetWarning,0830.9,5.01,000.00,023.8,022.4,000.0,032.3,025.1,11.4,0004.6,0008.44,0019.05,0007.84
2024-01-03 03:07:00,SystemResetWarning,0830.6,5.01,000.00,023.8,022.4,000.0,032.2,025.0,11.5,0004.7,0008.41,0019.50,0007.79
2024-01-03 03:08:00,SystemResetWarning,0830.6,5.00,000.00,023.7,022.4,000.0,032.2,025.0,11.5,0004.7,0008.35,0018.45,0007.70
2024-01-03 03:09:00,SystemResetWarning,0830.5,4.99,000.00,023.7,022.4,000.0,032.2,025.0,11.5,0004.5,0008.32,0017.14,0007.66
2024-01-03 03:10:00,SystemResetWarning,0830.4,5.00,000.00,023.7,022.4,000.0,032.2,025.0,11.4,0004.1,0008.32,0016.26,0007.61
2024-01-03 03:11:00,SystemResetWarning,0830.5,5.00,000.00,023.7,022.3,000.0,032.2,025.0,11.2,0004.4,0008.18,0015.87,0007.50
2024-01-03 03:12:00,SystemResetWarning,0830.4,5.00,000.00,023.7,022.3,000.0,032.2,025.0,11.3,0004.4,0008.02,0015.84,0007.36
2024-01-03 03:13:00,SystemResetWarning,0830.6,5.00,000.00,023.7,022.3,000.0,032.1,025.0,11.6,0004.5,0007.85,0015.98,0007.22
2024-01-03 03:14:00,SystemResetWarning,0830.6,4.99,000.00,023.7,022.3,000.0,032.1,025.0,11.9,0004.2,0007.67,0015.73,0007.05
2024-01-03 03:15:00,SystemResetWarning,0830.7,5.00,000.00,023.7,022.3,000.0,032.1,025.0,12.1,0004.0,0007.50,0013.83,0006.88
2024-01-03 03:16:00,SystemResetWarning,0830.5,5.01,000.00,023.7,022.3,000.0,032.1,025.0,12.0,0003.7,0007.31,0013.57,0006.68
2024-01-03 03:17:00,SystemResetWarning,0830.4,5.00,000.00,023.6,022.3,000.0,032.1,025.0,11.9,0001.9,0007.15,0013.03,0006.50
2024-01-03 03:18:00,SystemResetWarning,0830.5,4.99,000.00,023.6,022.2,000.0,032.1,024.9,11.4,0002.5,0007.01,0012.35,0006.37
2024-01-03 03:19:00,SystemResetWarning,0830.6,4.99,000.00,023.6,022.2,000.0,032.1,024.9,11.3,0003.1,0006.93,0012.19,0006.31
2024-01-03 03:20:00,SystemResetWarning,0830.7,5.00,000.00,023.6,022.2,000.0,032.1,024.9,11.5,0000.0,0006.82,0012.08,0006.23
2024-01-03 03:21:00,SystemResetWarning,0830.5,5.01,000.00,023.6,022.2,000.0,032.0,024.9,11.3,0000.0,0006.66,0011.85,0006.13
2024-01-03 03:22:00,SystemResetWarning,0830.7,5.00,000.00,023.5,022.2,000.0,032.0,024.9,11.2,0000.0,0006.57,0011.50,0006.06
2024-01-03 03:23:00,SystemResetWarning,0830.6,4.99,000.00,023.5,022.1,000.0,032.0,024.9,11.2,0000.0,0006.48,0010.68,0005.97
2024-01-03 03:24:00,SystemResetWarning,0830.5,5.00,000.00,023.5,022.1,000.0,032.0,024.9,11.1,0000.0,0006.45,0010.20,0005.89
2024-01-03 03:25:00,SystemResetWarning,0830.4,5.00,000.00,023.5,022.1,000.0,032.0,024.9,11.2,0000.0,0006.43,0009.93,0005.87
2024-01-03 03:26:00,SystemResetWarning,0830.4,5.01,000.00,023.5,022.1,000.0,032.0,024.8,11.2,0000.0,0006.55,0010.15,0005.93
2024-01-03 03:27:00,SystemResetWarning,0830.4,5.01,000.00,023.5,022.1,000.0,031.9,024.8,11.1,0000.0,0006.72,0010.49,0006.07
2024-01-03 03:28:00,SystemResetWarning,0830.5,5.00,000.00,023.5,022.1,000.0,031.9,024.8,11.0,0000.0,0006.83,0011.17,0006.18
2024-01-03 03:29:00,SystemResetWarning,0830.4,4.99,000.00,023.5,022.1,000.0,031.9,024.8,10.8,0000.0,0006.93,0011.74,0006.27
2024-01-03 03:30:00,SystemResetWarning,0830.7,4.99,000.00,023.4,022.1,000.0,031.9,024.8,10.8,0000.0,0006.93,0012.05,0006.28
2024-01-03 03:31:00,SystemResetWarning,0830.5,5.00,000.00,023.4,022.1,000.0,031.9,024.8,10.8,0000.0,0006.86,0012.56,0006.20
2024-01-03 03:32:00,SystemResetWarning,0830.8,5.00,000.00,023.4,022.1,000.0,031.9,024.8,10.8,0000.0,0006.79,0012.53,0006.14
2024-01-03 03:33:00,SystemResetWarning,0830.8,5.00,000.00,023.4,022.0,000.0,031.9,024.7,10.8,0000.0,0006.71,0012.42,0006.08
2024-01-03 03:34:00,SystemResetWarning,0830.5,5.00,000.00,023.4,022.0,000.0,031.9,024.7,10.8,0000.0,0006.70,0012.39,0006.07
2024-01-03 03:35:00,SystemResetWarning,0830.7,5.00,000.00,023.4,022.0,000.0,031.8,024.7,10.9,0000.0,0006.65,0012.31,0006.05
2024-01-03 03:36:00,SystemResetWarning,0830.5,5.01,000.00,023.4,022.0,000.0,031.8,024.7,10.9,0000.0,0006.57,0012.20,0005.98
2024-01-03 03:37:00,SystemResetWarning,0830.4,5.00,000.00,023.3,022.0,000.0,031.8,024.7,10.9,0000.0,0006.37,0011.96,0005.84
2024-01-03 03:38:00,SystemResetWarning,0830.4,5.00,000.00,023.3,021.9,000.0,031.8,024.7,10.9,0000.0,0006.17,0011.97,0005.66
2024-01-03 03:39:00,SystemResetWarning,0830.4,5.00,000.00,023.3,021.9,000.0,031.8,024.7,10.9,0000.0,0006.01,0011.16,0005.51
2024-01-03 03:40:00,SystemResetWarning,0830.5,5.00,000.00,023.3,021.9,000.0,031.8,024.6,10.9,0000.0,0005.82,0010.67,0005.33
2024-01-03 03:41:00,SystemResetWarning,0830.4,4.99,000.00,023.3,021.9,000.0,031.7,024.6,11.0,0000.0,0005.69,0010.95,0005.19
2024-01-03 03:42:00,SystemResetWarning,0830.4,5.01,000.00,023.3,021.9,000.0,031.7,024.6,11.0,0000.0,0005.61,0010.52,0005.12
2024-01-03 03:43:00,SystemResetWarning,0830.4,5.01,000.00,023.2,021.9,000.0,031.7,024.6,11.0,0000.0,0005.53,0011.15,0005.04
2024-01-03 03:44:00,SystemResetWarning,0830.4,5.00,000.00,023.2,021.9,000.0,031.7,024.6,11.1,0000.4,0005.43,0011.78,0004.96
2024-01-03 03:45:00,SystemResetWarning,0830.4,4.99,000.00,023.2,021.9,000.0,031.7,024.6,11.2,0004.6,0005.34,0011.88,0004.88
2024-01-03 03:46:00,SystemResetWarning,0830.4,5.00,000.00,023.2,021.9,000.0,031.7,024.5,11.3,0004.7,0005.22,0011.77,0004.79
2024-01-03 03:47:00,SystemResetWarning,0830.4,5.00,000.00,023.2,021.8,000.0,031.7,024.5,11.3,0005.4,0005.14,0011.80,0004.71
2024-01-03 03:48:00,SystemResetWarning,0830.4,5.00,000.00,023.2,021.8,000.0,031.6,024.5,11.2,0005.5,0005.06,0011.98,0004.63
2024-01-03 03:49:00,SystemResetWarning,0830.4,5.01,000.00,023.2,021.8,000.0,031.6,024.5,11.1,0004.7,0004.92,0011.49,0004.53
2024-01-03 03:50:00,SystemResetWarning,0830.4,5.01,000.00,023.1,021.8,000.0,031.6,024.4,11.1,0002.4,0004.79,0011.45,0004.44
2024-01-03 03:51:00,SystemResetWarning,0830.3,5.01,000.00,023.1,021.8,000.0,031.6,024.4,11.1,0000.0,0004.75,0011.30,0004.40
2024-01-03 03:52:00,SystemResetWarning,0830.3,5.00,000.00,023.1,021.8,000.0,031.6,024.4,11.1,0000.0,0004.76,0010.60,0004.39
2024-01-03 03:53:00,SystemResetWarning,0830.3,5.00,000.00,023.1,021.8,000.0,031.6,024.4,11.2,0000.0,0004.76,0010.43,0004.38
2024-01-03 03:54:00,SystemResetWarning,0830.3,5.00,000.00,023.1,021.7,000.0,031.6,024.4,11.1,0000.0,0004.78,0009.99,0004.39
2024-01-03 03:55:00,SystemResetWarning,0830.3,4.99,000.00,023.1,021.7,000.0,031.5,024.4,11.1,0000.0,0004.83,0009.45,0004.41
2024-01-03 03:56:00,SystemResetWarning,0830.3,5.00,000.00,023.1,021.7,000.0,031.5,024.4,11.0,0000.0,0004.84,0009.24,0004.44
2024-01-03 03:57:00,SystemResetWarning,0830.3,5.01,000.00,023.0,021.7,000.0,031.5,024.4,11.0,0000.0,0004.90,0009.59,0004.48
2024-01-03 03:58:00,SystemResetWarning,0830.3,5.01,000.00,023.0,021.7,000.0,031.5,024.3,11.2,0000.0,0004.96,0009.54,0004.54
2024-01-03 03:59:00,SystemResetWarning,0830.3,4.99,000.00,023.0,021.6,000.0,031.5,024.3,11.2,0000.0,0005.02,0009.25,0004.58
